This is the latest recevied weather packets stored in our database for station/object WZ8H. If no packets are shown the sender has not sent any weather packets the latest 10 day(s).
| Time | Temp. | Humidity | Pressure | Rain* | Wind** | Luminosity | Snow |
|---|---|---|---|---|---|---|---|
| 1777569200 | 11.11° C | 70% | 1014.2 hPa | 0 mm | - | 1114 W/m² | - |
| 1777568895 | 11.11° C | 70% | 1014.2 hPa | 0 mm | - | 967 W/m² | - |
| 1777568578 | 10.56° C | 68% | 1014.2 hPa | 0 mm | - | 1039 W/m² | - |
| 1777568253 | 11.11° C | 70% | 1014.2 hPa | 0 mm | - | 1007 W/m² | - |
| 1777567950 | 10.56° C | 71% | 1014.2 hPa | 0 mm | - | 956 W/m² | - |
| 1777567623 | 10.56° C | 72% | 1014.3 hPa | 0 mm | - | 1141 W/m² | - |
| 1777567321 | 10.56° C | 70% | 1014.4 hPa | 0 mm | - | 327 W/m² | - |
| 1777566999 | 10.56° C | 69% | 1014.4 hPa | 0 mm | - | 533 W/m² | - |
| 1777566701 | 10.56° C | 67% | 1014.4 hPa | 0 mm | - | 752 W/m² | - |
| 1777566375 | 10.56° C | 70% | 1014.4 hPa | 0 mm | - | 1037 W/m² | - |
| 1777566073 | 10.56° C | 70% | 1014.4 hPa | 0 mm | - | 990 W/m² | - |
| 1777565747 | 10.56° C | 71% | 1014.4 hPa | 0 mm | - | 979 W/m² | - |
| 1777565447 | 10.56° C | 71% | 1014.5 hPa | 0 mm | - | 967 W/m² | - |
| 1777565144 | 10.56° C | 73% | 1014.5 hPa | 0 mm | - | 747 W/m² | - |
| 1777564844 | 10.56° C | 76% | 1014.4 hPa | 0 mm | - | 784 W/m² | - |
| 1777564541 | 10° C | 74% | 1014.4 hPa | 0 mm | - | 814 W/m² | - |
| 1777564244 | 10° C | 74% | 1014.4 hPa | 0 mm | - | 772 W/m² | - |
| 1777563923 | 10° C | 76% | 1014.3 hPa | 0 mm | - | 977 W/m² | - |
| 1777563602 | 10° C | 77% | 1014.3 hPa | 0 mm | - | 1046 W/m² | - |
| 1777563304 | 9.44° C | 77% | 1014.3 hPa | 0 mm | - | 977 W/m² | - |
| 1777562983 | 9.44° C | 78% | 1014.3 hPa | 0 mm | - | 745 W/m² | - |
| 1777562685 | 8.89° C | 78% | 1014.2 hPa | 0 mm | - | 758 W/m² | - |
| 1777562366 | 8.89° C | 79% | 1014.2 hPa | 0 mm | - | 545 W/m² | - |
| 1777562046 | 8.33° C | 79% | 1014.3 hPa | 0 mm | - | 443 W/m² | - |
| 1777561724 | 8.33° C | 81% | 1014.2 hPa | 0 mm | - | 236 W/m² | - |
* Rain latest hour (hover to see other rain measurements)
** Current wind speed in m/s (hover to see current wind gust speed)